Terminal Aerodrome Forecast
Issued by NWS

Home | Current Version | Previous Version | Text Only | Print | Product List | Glossary On
Versions: 1 2 3 4 5 6 7 8 9 10 11 12 13 14 15 16
000
FTUS46 KMTR 190522
TAFMRY
TAF
KMRY 190522Z 1906/2006 24005KT P6SM BKN008
     FM191800 29006KT P6SM SCT010
     FM200000 24005KT P6SM OVC008=

USA.gov is the U.S. government's official web portal to all federal, state and local government web resources and services.